EW5919 Weather Reports


time (UTC)temp
F
wind
direction
speed
knots
gust
knots
rain 1hr
in
rain 24hr
in
rain mn
in
humidity
%
barometer
mb
20260504204517 79 189 0.0 0.0 0.00 0.00 0.00 32 1013.1
20260504203013 80 165 0.0 0.9 0.00 0.00 0.00 34 1013.2
20260504201509 80 152 0.0 3.5 0.00 0.00 0.00 33 1013.3
20260504200008 80 212 0.0 0.0 0.00 0.00 0.00 35 1013.4
20260504194507 79 163 0.0 1.7 0.00 0.00 0.00 31 1013.7
20260504193004 80 146 0.0 3.5 0.00 0.00 0.00 32 1013.8
20260504191502 80 127 0.0 1.7 0.00 0.00 0.00 35 1014.2
20260504190100 80 194 0.0 0.9 0.00 0.00 0.00 34 1014.3
20260504184559 77 302 0.0 3.5 0.00 0.00 0.00 35 1014.5
20260504183056 77 200 0.0 0.9 0.00 0.00 0.00 37 1014.7
20260504181553 77 313 0.0 1.7 0.00 0.00 0.00 37 1015.0
20260504180049 77 261 0.0 0.0 0.00 0.00 0.00 38 1015.2
20260504174548 75 205 0.0 0.0 0.00 0.00 0.00 42 1015.4
20260504173042 74 246 0.0 0.0 0.00 0.00 0.00 43 1015.5
20260504171544 74 294 0.0 0.0 0.00 0.00 0.00 42 1015.7
20260504081621 42 304 0.0 0.0 0.00 0.00 0.00 91 1016.7
20260504044557 47 304 0.0 0.0 0.00 0.00 0.00 84 1017.6
20260504043058 47 304 0.0 0.0 0.00 0.00 0.00 83 1017.7
20260504041551 48 304 0.0 0.0 0.00 0.00 0.00 83 1017.8
20260504040049 48 304 0.0 0.0 0.00 0.00 0.00 82 1017.7
20260504034550 49 304 0.0 0.0 0.00 0.00 0.00 80 1017.8
20260504033048 50 304 0.0 0.0 0.00 0.00 0.00 79 1017.7
20260504031551 50 304 0.0 0.0 0.00 0.00 0.00 78 1017.7
20260504030048 51 304 0.0 0.0 0.00 0.00 0.00 77 1017.6
20260504024549 52 304 0.0 0.0 0.00 0.00 0.00 75 1017.4
20260504023047 52 304 0.0 0.0 0.00 0.00 0.00 75 1017.4
20260504021547 53 304 0.0 0.0 0.00 0.00 0.00 73 1017.3
20260504014559 56 304 0.0 0.0 0.00 0.00 0.00 69 1016.9
20260504013058 57 304 0.0 0.0 0.00 0.00 0.00 66 1016.7
20260504011546 59 304 0.0 0.0 0.00 0.00 0.00 61 1016.3
20260504010046 61 304 0.0 0.0 0.00 0.00 0.00 59 1016.3
20260504004615 63 304 0.0 0.0 0.00 0.00 0.00 55 1016.1
20260504003049 65 304 0.0 0.0 0.00 0.00 0.00 53 1016.0
20260504001615 67 309 0.0 0.0 0.00 0.00 0.00 47 1015.9
20260504000045 69 309 0.0 0.0 0.00 0.00 0.00 41 1015.9
20260503234541 70 309 0.0 0.0 0.00 0.00 0.00 38 1015.9
20260503233042 72 291 0.0 1.7 0.00 0.00 0.00 36 1015.8
20260503231538 71 259 0.0 0.0 0.00 0.00 0.00 34 1015.8
20260503230049 71 281 0.0 1.7 0.00 0.00 0.00 36 1015.8
20260503224538 72 275 0.0 0.0 0.00 0.00 0.00 32 1015.8
20260503223037 72 258 0.0 1.7 0.00 0.00 0.00 34 1015.8
20260503221536 72 333 0.0 0.9 0.00 0.00 0.00 36 1015.9
20260503220044 72 318 0.0 4.3 0.00 0.00 0.00 34 1016.0
20260503214534 72 302 0.0 1.7 0.00 0.00 0.00 36 1016.0
20260503213034 72 306 0.0 2.6 0.00 0.00 0.00 35 1016.2
20260503211535 73 317 0.0 0.0 0.00 0.00 0.00 34 1016.3
20260503210030 72 287 0.0 0.0 0.00 0.00 0.00 35 1016.4